Вернуться в каталог

STARLINK-36238

АктивенСвязьVLEO
NORAD 68563·PAYLOAD·🇺🇸 United States

Запущен Apr 2, 2026 с Cape Canaveral Space Force Station

Loading…

Ближайшие Пролёты (ближайшие 24 часа)

TLE

СвежийSource: CelesTrak SupGP

Эпоха: Sep 15, 2026, 03:31 UTC

1 68563C 26070X   26258.14701389 -.00056687  00000+0 -16749-2 0  2589
2 68563  53.1580 198.5130 0001286  79.1753 102.0530 15.34417328    18

Отслеживайте STARLINK-36238 в реальном времени с AllMySat

Download on the App Store